Location: Unnamed
(51.5169°N, 0.1311°W)
Time: 21:27:49
(UTC+01:00)

Tiros 1 - Pass Details

Date: 11 August 2024
Orbit: 623 x 655 km, 48.4° (Epoch: 16 September)

Event Time Altitude Azimuth Distance (km) Brightness Sun altitude
Rises 08:12:40 0° 256° (WSW) 2,977 10.0 22.1°
Reaches altitude 10° 08:15:02 10° 252° (WSW) 2,066 9.3 22.5°
Maximum altitude 08:19:43 59° 174° (S) 761 8.0 23.2°
Drops below altitude 10° 08:24:23 10° 96° (E) 2,060 11.8 24.0°
Sets 08:26:45 0° 92° (E) 2,968 12.0 24.3°
